Location: Celina Post Office
(33.3242°N, 96.7950°W)
Time: 10:53:26
(UTC+00:00)

Daily predictions for brighter satellites

Satellite Brightness Start Highest point End
(mag) Time Altitude Azimuth Time Altitude Azimuth Time Altitude Azimuth
YAOGAN 6 4.4 12:05:35 16° WSW 12:05:35 16° WSW 12:06:33 10° SW
CZ-4B R/B 3.7 12:01:29 10° NNE 12:04:56 47° E 12:08:25 10° S
Cosmos 1408 Rocket 3.9 12:02:10 10° S 12:06:26 67° E 12:10:41 10° NNE
OAO 3 Rocket 4.1 12:06:12 19° W 12:09:12 37° SSW 12:13:44 10° SE
BREEZE-M DEB 2.7 12:11:17 17° WSW 12:13:15 62° NW 12:19:16 10° NE
OE (NEXTSAT) 4.2 12:12:45 22° WNW 12:14:47 75° SW 12:18:11 10° SE
USA 215 3.9 12:08:55 10° ESE 12:15:12 53° NE 12:21:30 10° NNW
Cosmos 836 Rocket 4.4 12:10:41 10° NNW 12:15:56 82° WSW 12:21:06 10° SSE
Cosmos 2279 Rocket 3.9 12:11:02 10° N 12:17:12 72° W 12:23:21 10° S
Cosmos 1867 4.3 12:13:50 16° NW 12:17:24 33° WSW 12:22:12 10° S
Nadezhda 4 Rocket 4.1 12:14:09 10° S 12:20:15 80° E 12:26:28 10° N
Cosmos 1503 Rocket 4.3 12:17:50 10° SW 12:22:47 43° WNW 12:27:50 10° N
DMSP B5D2-2 4.4 12:20:01 10° SSE 12:25:12 71° ENE 12:30:24 10° N
Cosmos 1656 Rocket 4.4 12:22:12 10° WSW 12:26:46 28° WNW 12:31:22 10° N
Cosmos 1515 Rocket 3.8 12:25:01 10° N 12:29:22 71° E 12:33:40 10° SSE
SJ 16-02 1.4 12:26:08 10° SSW 12:30:30 84° ESE 12:34:53 10° NNE
CZ-2C R/B 3.2 12:26:32 10° SSW 12:31:37 37° W 12:36:39 10° NNW
Cosmos 1340 Rocket 3.1 12:29:16 10° S 12:33:10 71° E 12:37:07 10° NNE
Cosmos 1777 Rocket 3.9 12:28:53 10° SSW 12:34:05 80° WNW 12:39:20 10° NNE
BREEZE-M DEB (TANK) 3.7 12:19:07 10° NW 12:34:15 73° SW 12:38:32 10° SE
SL-27 R/B 4.3 12:31:32 10° N 12:34:46 32° ENE 12:37:57 10° SE
Cosmos 1500 Rocket 3.6 12:38:17 10° S 12:42:43 82° W 12:47:12 10° N
Cosmos 1939 Rocket 2.7 12:43:33 10° N 12:47:25 65° WNW 12:51:14 10° SSW
NOAA 6 4.2 12:43:06 10° NNE 12:48:14 83° ESE 12:53:21 10° SSW
Cosmos 773 Rocket 4.3 12:43:36 10° NNW 12:48:49 73° ENE 12:53:57 10° SSE
CORIOLIS 4.5 12:44:49 10° NNE 12:50:17 76° ESE 12:55:42 10° S
Cosmos 1763 Rocket 4.2 23:38:55 10° SSW 23:43:52 56° WNW 23:48:53 10° N
Aurora 2 Rocket 4.3 23:40:39 10° WSW 23:44:44 33° S 23:50:17 10° ESE
Cosmos 841 Rocket 3.5 23:44:29 10° S 23:49:35 64° ESE 23:54:41 10° NNE
Cosmos 1697 Rocket 3.0 23:47:54 10° N 23:53:13 42° ENE 23:58:30 10° SE
Cosmos 1602 4.1 23:50:29 10° N 23:54:10 42° E 23:57:51 10° SSE
Cosmos 1782 2.9 23:50:29 10° S 23:54:24 57° E 23:58:19 10° NNE
Okean O Rocket 3.1 23:53:40 10° ESE 23:56:30 17° ENE 23:59:20 10° NNE
